TimeAKST,TemperatureF,Dew PointF,Humidity,Sea Level PressureIn,VisibilityMPH,Wind Direction,Wind SpeedMPH,Gust SpeedMPH,PrecipitationIn,Events,Conditions,WindDirDegrees,DateUTC
12:46 AM,34.0,34.0,100,29.63,3.0,Calm,Calm,-,0.03,Rain,Light Rain,0,2013-01-23 09:46:00
12:53 AM,34.0,34.0,100,29.64,3.0,Calm,Calm,-,0.03,Rain,Light Rain,0,2013-01-23 09:53:00
1:53 AM,34.0,34.0,100,29.63,4.0,Calm,Calm,-,0.05,Rain,Light Rain,0,2013-01-23 10:53:00
3:53 AM,34.0,33.1,96,29.61,7.0,Calm,Calm,-,0.02,Rain,Light Rain,0,2013-01-23 12:53:00
4:53 AM,34.0,33.1,96,29.61,7.0,SSW,3.5,-,0.03,Rain,Light Rain,210,2013-01-23 13:53:00
5:15 AM,34.0,33.1,96,29.61,7.0,SW,3.5,-,0.02,Rain,Light Rain,230,2013-01-23 14:15:00
5:53 AM,34.0,33.1,96,29.60,6.0,East,8.1,-,0.05,Rain,Light Rain,100,2013-01-23 14:53:00
6:04 AM,35.1,34.0,96,29.60,8.0,East,10.4,-,0.00,Rain,Light Rain,90,2013-01-23 15:04:00
6:34 AM,36.0,34.0,93,29.60,10.0,East,13.8,-,0.01,Rain,Light Rain,90,2013-01-23 15:34:00
6:53 AM,36.0,34.0,93,29.60,10.0,ESE,15.0,-,0.01,Rain,Light Rain,110,2013-01-23 15:53:00
7:53 AM,37.0,34.0,89,29.60,10.0,East,13.8,-,0.01,Rain,Light Rain,80,2013-01-23 16:53:00
8:53 AM,36.0,34.0,93,29.62,10.0,East,10.4,-,0.00,,Mostly Cloudy,90,2013-01-23 17:53:00
9:53 AM,37.0,34.0,89,29.62,10.0,ESE,16.1,-,N/A,,Mostly Cloudy,110,2013-01-23 18:53:00
10:53 AM,37.0,35.1,93,29.62,10.0,East,13.8,-,0.00,,Overcast,90,2013-01-23 19:53:00
11:53 AM,37.9,35.1,89,29.62,9.0,East,13.8,-,0.00,Rain,Light Rain,100,2013-01-23 20:53:00
12:53 PM,37.9,35.1,89,29.61,10.0,ESE,15.0,-,0.00,,Overcast,120,2013-01-23 21:53:00
1:53 PM,37.9,35.1,89,29.60,10.0,East,12.7,-,0.00,,Overcast,90,2013-01-23 22:53:00
2:53 PM,37.0,34.0,89,29.60,10.0,ESE,16.1,-,0.00,Rain,Light Rain,110,2013-01-23 23:53:00
3:53 PM,37.0,34.0,89,29.60,10.0,East,12.7,-,0.00,Rain,Light Rain,100,2013-01-24 00:53:00
4:53 PM,37.0,34.0,89,29.60,10.0,ESE,16.1,-,0.02,Rain,Light Rain,110,2013-01-24 01:53:00
5:53 PM,36.0,34.0,93,29.60,10.0,East,12.7,-,0.00,Rain,Light Rain,90,2013-01-24 02:53:00
6:53 PM,36.0,34.0,93,29.62,10.0,East,13.8,-,0.01,Rain,Light Rain,100,2013-01-24 03:53:00
7:53 PM,36.0,34.0,93,29.63,10.0,East,13.8,-,0.01,Rain,Light Rain,90,2013-01-24 04:53:00
8:53 PM,35.1,34.0,96,29.65,10.0,East,12.7,-,0.00,Rain,Light Rain,90,2013-01-24 05:53:00
9:53 PM,35.1,34.0,96,29.67,10.0,East,9.2,-,0.01,Rain,Light Rain,80,2013-01-24 06:53:00
10:53 PM,35.1,34.0,96,29.69,10.0,East,12.7,-,0.01,Rain,Light Rain,90,2013-01-24 07:53:00
11:53 PM,35.1,34.0,96,29.70,10.0,East,11.5,-,0.01,Rain,Light Rain,80,2013-01-24 08:53:00